Location: Recife
(8.0585°S, 34.8848°W)
Time: 13:35:44
(UTC-03:00)

Tiros 1 - Pass Details

Date: 19 April 2026
Orbit: 618 x 648 km, 48.4° (Epoch: 11 May)

Event Time Altitude Azimuth Distance (km) Brightness Sun altitude
Rises 05:09:29 0° 219° (SW) 2,903 10.0 -3.8°
Reaches altitude 10° 05:11:48 10° 218° (SW) 1,990 9.2 -3.2°
Maximum altitude 05:16:23 86° 129° (SE) 623 7.2 -2.1°
Drops below altitude 10° 05:20:55 10° 40° (NE) 1,968 10.6 -1.0°
Sets 05:23:12 0° 40° (NE) 2,869 11.4 -0.5°
